Showing default

YAOGAN-36 03B, 54374

Orbit data source: Space-Track

YAOGAN-36 03B, 54374 is a payload satellite owned by PLA GAD (CN) in LEO that was launched on Sun, 27 Nov 2022 UTC via a CHANG ZHENG 2D launch vehicle from the Xichang Space Center, China (XSC). Payload-class satellites include a variety of spacecraft equipped with specific instruments for various scientific and technological missions. These include communications satellites like Starlink; space stations such as the ISS; scientific satellites like the Hubble; Earth observation satellites from companies like Planet Labs, Umbra, and HawkEye 360; GPS; miniature CubeSats for education and research; and military/defense satellites.

Loading next visibility...
Identifier
54374, 2022-160C
Orbit
LEO
Country
Flag of CNCN / PRC
Related business
Manufacturer
DFH
Mission
Operational Defense Sigint
Bus & Motor
Unknown
Mass
~300 kg wet, ~300 kg dry
Launch date (UTC)
2022-11-27 (4 years ago)
Launch vehicle
CHANG ZHENG 2D
Launch site
Xichang Space Center, China (XSC)
Object type
Payload
Rocket body
Debris
Shape & HBR
Box + 2 Pan, 2.5 m
Radar Cross Section
11.063 m², Large (>1 m²)

Expand to show TLE details & history
Last TLE update: 21 hours ago

TLE from 21 hours ago
0 YAOGAN-36 03B
1 54374U 22160C   26172.56531191  .00005974  00000-0  26394-3 0  9995
2 54374  34.9934 338.3940 0008231 201.9313 158.1050 15.21036443198399
Epoch: 2026-06-21T13:34Z
TLE epoch observation values (Epoch: 2026-06-21T13:34:02.949Z)
Latitude
0.00003°
Longitude
-134.882°
Altitude
506.875 km
Speed
7.61 km/s
True Right ascension
22h 33m 34s
True Declination
0° 00' 00"
Sunlit
Object was in daylight at epoch
Visualization orbit readout
Latitude
Unknown
Longitude
Unknown
Altitude
Unknown
Speed
Unknown
Apparent Right ascension
Unknown
Apparent Declination
Unknown
Sunlit
N/A
Visualization observer readout
Local Sidereal Time
21:31:26
Azimuth
Unknown
Elevation
Unknown
Doppler factor
Unknown
Orbital elements
Apogee altitude
511.628 km
Perigee altitude
500.295 km
Semi-major axis
6,884.098 km
Eccentricity
0.00082
Inclination
34.9934°
RAAN
338.394°
Arg. of periapsis
201.9313°
True anomaly
158.14014°
Mean anomaly
158.105°
Eccentric anomaly
158.12257°
Mean motion
3.7999 °/min
Orbital period
94.74 mins
BSTAR
0.00026394
Loading maneuver chart data...
Computing Atmospheric mass density...
Loading historical data...
Loading historical data...
Loading historical data...
Loading historical data...
Loading historical data...
Loading historical data...
Loading historical data...
Other satellites on launch #160 in the year 2022 (2022-11-27 UTC)

Documentation

Showing up to 5 results
|